Regional Weather Roundup
Issued by NWS

Home | Current Version | Previous Version | Text Only | Print | Product List | Glossary Off
Versions: 1 2 3 4 5 6 7 8 9 10 11 12 13 14 15 16 17 18 19 20 21 22 23 24 25 26 27 28 29 30 31 32 33 34 35 36 37 38 39 40 41 42 43 44 45 46 47 48 49 50

000
ASUS45 KCYS 201010
RWRWY

WYOMING REGIONAL WEATHER ROUNDUP
NATIONAL WEATHER SERVICE CHEYENNE WY
400 AM MDT MON OCT 20 2014

NOTE:  "FAIR" INDICATES FEW OR NO CLOUDS BELOW 12,000 FEET
WITH NO SIGNIFICANT WEATHER AND/OR OBSTRUCTIONS TO VISIBILITY.

WYZ001-201100-
YELLOWSTONE NATIONAL PARK

CITY           SKY/WX    TMP DP  RH WIND       PRES   REMARKS
LK YELLOWSTONE   N/A     26  22  84 CALM      30.23F
W YELLOWSTONE  NOT AVBL

$$
WYZ002>013-054>058-071-098>099-201100-
NORTHERN WYOMING

CITY           SKY/WX    TMP DP  RH WIND       PRES   REMARKS
JACKSON        CLEAR     28  25  86 N6        30.19F WCI  22
CODY           CLEAR    N/A N/A N/A SW5       30.03S
GREYBULL       CLEAR     38  28  67 SE3       30.02S
WORLAND        CLEAR     37  28  70 SW7       30.02F WCI  32
SHERIDAN       CLEAR     35  29  78 MISG      29.98F
BUFFALO        CLEAR     57  25  29 SW8       30.03F
GILLETTE       CLEAR     49  36  61 S17       30.05S
HULETT         FAIR      54  36  50 SW6       30.06
NEWCASTLE      FAIR      48  36  61 SE7       30.10

$$
WYZ014>020-022>026-101>103-201100-
CENTRAL WYOMING

CITY           SKY/WX    TMP DP  RH WIND       PRES   REMARKS
BIG PINEY      PTCLDY    26  20  77 N8        30.21F WCI  18
PINEDALE       MOSUNNY   27  23  86 NW6       30.22S WCI  20
DUBOIS         FAIR      36  19  51 NW10G16   30.17F WCI  28
LANDER         CLEAR     38  29  70 CALM      30.09F
RIVERTON       CLEAR     42  27  55 W8        30.10F
CASPER         CLEAR     31  26  82 CALM      30.10F
DOUGLAS        CLEAR     40  33  76 CALM      30.11F

$$
WYZ021-027>030-104>119-201100-
SOUTHERN WYOMING

CITY           SKY/WX    TMP DP  RH WIND       PRES   REMARKS
EVANSTON       CLEAR     46  27  47 SE7       30.18F
KEMMERER       SUNNY     36  27  69 N10       30.20S WCI  28
FORT BRIDGER   FAIR      44  31  59 W7        30.20F
ROCK SPRINGS   PTCLDY    42  28  57 E5        30.18S
DIXON          FAIR      34  29  83 CALM      30.22S
RAWLINS        CLEAR     32  24  72 CALM      30.19S
SARATOGA       FAIR      41  30  65 CALM      30.21S
LARAMIE        CLEAR     32  27  81 SW7       30.21F WCI  26
CHEYENNE       CLEAR     40  33  76 W6        30.18F
TORRINGTON     CLEAR     40  33  76 CALM      30.10F
PINE BLUFFS    FAIR      36  32  87 W3        30.16S

$$


USA.gov is the U.S. government's official web portal to all federal, state and local government web resources and services.